Location: Unspecified
(0.0000°N, 0.0000°E)
Time: 20:07:38
(UTC+00:00)

Envisat - Pass Details

Date: 22 January 2018
Orbit: 764 x 766 km, 98.2° (Epoch: 17 January)

Event Time Altitude Azimuth Distance (km) Brightness Sun altitude
Rises 18:54:14 0° 132° (SE) 3,228 6.0 -10.0°
Reaches altitude 10° 18:57:46 10° 106° (ESE) 2,298 5.0 -10.9°
Enters shadow 18:59:13 13° 90° (E) 2,102 4.7 -11.2°
